Temp
-6 -6 -6 -6 -6 -7 -7 -6 -6 -5 -5 -6 -5 -6 -6 -5 -6 -5 -5 -5 -5 -5 -5 -5 -6 -6 -6 -5 -5 -5 -5 -6 -6 -6 -6 -6 -7 -6 -6 -6 -7 -7 -8 -7
-6 -6 -7 -7 -7 -7 -7 -7 -5 -5 -5 -7 -7 -6 -6 -6 -6 -6 -5 -6 -5 -5 -6 -5 -5 -5 -5 -5 -5 -5 -6 -6 -6 -6 -6 -6 -7 -7 -7 -6 -6 -7 -8 -7
-7 -8 -7 -7 -7 -6 -7 -7 -6 -6 -6 -6 -6 -7 -6 -6 -6 -6 -6 -6 -5 -5 -6 -6 -6 -6 -5 -5 -6 -5 -6 -6 -6 -7 -7 -6 -7 -7 -7 -6 -6 -7 -7 -7
-8 -8 -8 -7 -7 -7 -7 -8 -7 -7 -7 -7 -8 -7 -6 -6 -4 -6 -6 -6 -6 -6 -6 -6 -7 -6 -6 -6 -5 -6 -5 -6 -6 -6 -7 -6 -7 -7 -7 -7 -6 -6 -7 -7
-9 -8 -8 -8 -7 -7 -8 -8 -8 -9 -9 -8 -7 -7 -6 -6 -6 -7 -6 -6 -5 -5 -6 -7 -7 -7 -6 -6 -5 -6 -5 -6 -6 -7 -6 -7 -7 -7 -7 -7 -7 -6 -7 -7
-9 -10 -9 -9 -8 -7 -9 -9 -9 -9 -8 -7 -7 -6 -7 -6 -6 -6 -7 -7 -6 -5 -5 -6 -7 -7 -6 -6 -6 -6 -6 -6 -6 -7 -6 -7 -7 -7 -7 -7 -7 -7 -7 -7
-10 -9 -9 -9 -9 -8 -10 -9 -9 -8 -8 -7 -7 -6 -7 -7 -7 -7 -8 -6 -6 -6 -7 -5 -6 -7 -7 -7 -6 -6 -6 -6 -6 -7 -7 -7 -7 -7 -7 -7 -7 -7 -7 -7
-10 -10 -10 -10 -9 -9 -10 -9 -10 -9 -8 -9 -8 -7 -7 -8 -7 -8 -7 -6 -6 -7 -6 -6 -6 -6 -7 -6 -7 -6 -6 -6 -6 -7 -7 -7 -7 -7 -7 -7 -7 -7 -7 -7
-11 -11 -11 -10 -9 -9 -10 -10 -10 -10 -9 -9 -9 -8 -7 -6 -6 -7 -6 -7 -6 -6 -6 -6 -6 -6 -6 -6 -6 -6 -6 -7 -6 -6 -7 -7 -7 -7 -7 -6 -7 -7 -7 -7
-12 -11 -11 -11 -11 -10 -10 -10 -10 -10 -9 -9 -9 -9 -9 -7 -6 -7 -6 -7 -7 -7 -7 -7 -8 -7 -7 -6 -6 -6 -6 -6 -6 -6 -6 -7 -7 -7 -7 -6 -6 -7 -7 -7
-12 -11 -11 -12 -11 -10 -10 -10 -10 -10 -9 -10 -9 -9 -8 -7 -6 -6 -6 -7 -7 -8 -8 -7 -6 -6 -6 -6 -6 -7 -7 -6 -7 -6 -5 -6 -7 -7 -6 -7 -7 -6 -7 -7
-12 -12 -12 -12 -12 -11 -10 -10 -11 -10 -10 -10 -10 -10 -9 -8 -8 -7 -8 -7 -8 -8 -7 -7 -6 -7 -6 -6 -6 -7 -7 -6 -7 -7 -6 -6 -6 -6 -6 -6 -7 -7 -7 -7
-13 -12 -13 -13 -12 -12 -11 -10 -11 -10 -10 -10 -10 -9 -8 -8 -8 -8 -7 -8 -8 -8 -7 -7 -7 -7 -7 -7 -6 -6 -6 -6 -7 -7 -7 -6 -6 -6 -6 -6 -6 -7 -6 -6
-14 -13 -13 -12 -12 -11 -12 -10 -11 -10 -10 -10 -10 -9 -9 -8 -8 -8 -6 -8 -8 -8 -8 -8 -8 -8 -7 -7 -8 -7 -7 -7 -6 -7 -6 -7 -7 -7 -6 -6 -6 -6 -6 -6
-14 -13 -13 -12 -12 -11 -11 -10 -11 -11 -11 -10 -9 -9 -9 -9 -9 -9 -9 -9 -9 -9 -9 -8 -8 -8 -7 -7 -8 -8 -8 -7 -7 -7 -7 -6 -7 -7 -7 -7 -6 -6 -6 -6
-14 -13 -14 -13 -12 -12 -12 -11 -11 -11 -11 -10 -10 -9 -9 -9 -9 -9 -8 -9 -9 -9 -9 -8 -8 -8 -9 -8 -7 -7 -8 -8 -7 -7 -7 -7 -6 -7 -6 -6 -7 -7 -7 -6
-13 -14 -14 -13 -13 -12 -12 -12 -11 -11 -11 -11 -10 -9 -9 -9 -9 -9 -9 -10 -10 -9 -9 -9 -9 -9 -9 -9 -9 -8 -8 -9 -8 -9 -8 -7 -7 -7 -7 -6 -6 -7 -7 -7
-15 -14 -14 -13 -13 -13 -14 -13 -12 -11 -11 -11 -10 -9 -9 -9 -10 -10 -10 -10 -10 -10 -11 -10 -10 -10 -9 -9 -9 -9 -9 -9 -9 -8 -8 -7 -8 -8 -8 -8 -7 -7 -7 -8
-15 -15 -14 -14 -14 -13 -13 -14 -13 -12 -11 -11 -10 -10 -9 -9 -10 -10 -11 -11 -11 -10 -10 -10 -10 -10 -10 -10 -10 -10 -10 -10 -9 -9 -9 -9 -9 -9 -8 -8 -8 -8 -8 -7
-15 -15 -14 -14 -14 -14 -13 -14 -14 -12 -12 -12 -11 -11 -10 -9 -10 -10 -11 -12 -12 -11 -10 -11 -11 -11 -11 -11 -10 -10 -9 -9 -10 -10 -10 -9 -9 -9 -8 -8 -8 -9 -9 -8
-16 -16 -16 -16 -16 -15 -15 -15 -13 -14 -13 -12 -12 -12 -11 -11 -10 -10 -12 -11 -12 -12 -12 -12 -12 -12 -12 -12 -11 -11 -10 -10 -10 -10 -10 -10 -10 -9 -9 -9 -8 -8 -8 -9
-16 -16 -16 -16 -16 -16 -15 -16 -15 -13 -14 -14 -14 -13 -13 -12 -12 -12 -12 -12 -11 -12 -12 -13 -13 -12 -11 -11 -11 -11 -11 -10 -10 -10 -10 -10 -10 -9 -9 -9 -8 -8 -8 -8
-16 -16 -16 -16 -16 -16 -16 -16 -16 -15 -15 -15 -14 -14 -13 -13 -13 -14 -13 -14 -13 -12 -13 -13 -14 -13 -12 -11 -11 -11 -12 -11 -11 -10 -10 -9 -9 -9 -9 -9 -9 -8 -8 -8
-16 -16 -16 -16 -16 -16 -16 -16 -16 -16 -16 -15 -15 -14 -14 -14 -13 -13 -13 -13 -13 -14 -13 -13 -13 -13 -12 -12 -11 -11 -11 -11 -11 -11 -10 -10 -10 -9 -9 -9 -9 -9 -8 -8
-17 -17 -17 -17 -16 -16 -16 -16 -16 -17 -17 -16 -16 -15 -15 -15 -14 -14 -14 -14 -15 -14 -14 -14 -14 -14 -13 -12 -12 -12 -11 -11 -11 -11 -11 -11 -10 -10 -10 -10 -10 -9 -9 -9
-17 -18 -18 -17 -17 -17 -17 -16 -17 -17 -17 -17 -17 -16 -16 -15 -15 -14 -14 -15 -15 -15 -15 -15 -14 -14 -14 -14 -14 -13 -13 -12 -12 -12 -12 -11 -11 -11 -11 -11 -11 -11 -10 -10
Height
5847 5856 5863 5871 5877 5880 5881 5881 5880 5885 5888 5880 5888 5895 5898 5901 5903 5908 5912 5915 5917 5918 5920 5924 5926 5925 5927 5929 5932 5934 5935 5937 5936 5936 5938 5938 5938 5940 5939 5939 5940 5940 5942 5942
5843 5851 5859 5864 5870 5873 5876 5876 5879 5884 5883 5888 5891 5889 5896 5898 5901 5907 5911 5913 5915 5917 5918 5921 5925 5926 5929 5929 5930 5934 5936 5938 5940 5938 5939 5940 5941 5941 5941 5942 5942 5943 5944 5945
5838 5848 5850 5857 5864 5869 5872 5873 5878 5880 5882 5882 5884 5891 5892 5893 5898 5903 5906 5909 5912 5916 5919 5920 5923 5925 5927 5929 5930 5932 5937 5939 5941 5941 5941 5942 5943 5943 5944 5946 5946 5946 5946 5947
5834 5837 5844 5851 5858 5864 5868 5873 5873 5874 5877 5876 5883 5890 5892 5895 5892 5898 5902 5907 5910 5913 5917 5919 5921 5924 5926 5929 5931 5933 5936 5940 5941 5943 5944 5944 5944 5944 5946 5947 5949 5949 5949 5949
5831 5832 5839 5846 5855 5858 5869 5868 5869 5872 5872 5876 5883 5890 5891 5894 5895 5896 5900 5904 5907 5911 5914 5917 5921 5922 5925 5928 5929 5933 5935 5939 5941 5943 5945 5946 5945 5947 5948 5948 5950 5952 5951 5951
5820 5827 5834 5843 5851 5856 5862 5862 5866 5867 5870 5875 5882 5886 5888 5893 5892 5890 5897 5901 5903 5907 5908 5914 5917 5920 5923 5925 5926 5931 5933 5937 5939 5941 5943 5945 5945 5947 5949 5949 5950 5951 5951 5952
5817 5820 5826 5834 5842 5850 5852 5855 5859 5865 5866 5875 5875 5879 5889 5890 5891 5893 5897 5899 5901 5903 5906 5909 5912 5917 5920 5923 5923 5927 5930 5934 5937 5938 5941 5943 5944 5946 5948 5949 5949 5951 5952 5952
5812 5817 5822 5827 5837 5843 5847 5851 5855 5859 5866 5871 5870 5877 5883 5884 5887 5890 5894 5898 5898 5901 5903 5907 5911 5913 5915 5919 5921 5925 5928 5930 5934 5936 5938 5943 5943 5946 5947 5949 5951 5951 5951 5953
5806 5813 5820 5824 5833 5841 5844 5846 5853 5857 5863 5862 5865 5870 5876 5880 5884 5888 5895 5897 5897 5898 5898 5904 5908 5911 5915 5917 5920 5921 5924 5927 5930 5933 5936 5938 5941 5945 5947 5948 5950 5952 5953 5953
5802 5810 5815 5820 5827 5836 5845 5847 5850 5853 5858 5860 5862 5864 5868 5875 5881 5886 5890 5893 5895 5897 5897 5897 5903 5908 5910 5913 5916 5917 5920 5924 5924 5927 5931 5935 5940 5943 5945 5946 5947 5950 5954 5954
5798 5806 5811 5816 5822 5829 5834 5838 5845 5849 5854 5854 5857 5858 5861 5867 5875 5881 5885 5887 5891 5893 5895 5898 5900 5902 5905 5904 5905 5913 5916 5919 5924 5927 5929 5931 5935 5938 5942 5945 5945 5946 5949 5952
5793 5801 5804 5811 5816 5822 5827 5835 5840 5843 5848 5850 5850 5853 5855 5863 5871 5877 5880 5883 5886 5887 5892 5894 5896 5896 5900 5901 5901 5907 5909 5915 5918 5923 5926 5929 5933 5934 5938 5941 5943 5945 5947 5949
5788 5796 5800 5808 5815 5816 5823 5831 5835 5837 5840 5843 5845 5848 5853 5856 5862 5868 5876 5879 5882 5884 5886 5888 5890 5893 5894 5896 5893 5892 5902 5906 5912 5915 5918 5920 5925 5932 5933 5936 5938 5940 5943 5945
5786 5791 5796 5801 5807 5810 5814 5822 5828 5832 5835 5839 5842 5845 5848 5853 5857 5862 5861 5872 5875 5877 5878 5881 5883 5886 5889 5893 5894 5895 5899 5902 5905 5908 5901 5911 5916 5920 5925 5929 5934 5936 5937 5941
5783 5788 5793 5797 5800 5805 5808 5818 5821 5826 5829 5833 5838 5840 5844 5846 5852 5856 5855 5861 5867 5871 5873 5875 5876 5881 5885 5886 5888 5895 5897 5898 5900 5902 5902 5902 5909 5913 5915 5920 5925 5929 5933 5935
5779 5783 5788 5791 5796 5801 5802 5808 5816 5819 5822 5828 5833 5834 5837 5844 5848 5850 5852 5856 5860 5865 5868 5870 5873 5875 5879 5883 5888 5892 5896 5898 5897 5897 5896 5900 5900 5908 5908 5908 5914 5921 5926 5928
5774 5779 5783 5785 5790 5797 5800 5803 5808 5814 5816 5825 5828 5832 5833 5839 5844 5844 5847 5851 5854 5859 5864 5865 5868 5872 5875 5878 5881 5885 5888 5891 5893 5893 5894 5898 5899 5902 5904 5905 5909 5913 5916 5921
5768 5773 5777 5781 5786 5793 5792 5793 5802 5808 5812 5816 5821 5825 5828 5832 5840 5842 5843 5845 5849 5852 5858 5861 5864 5867 5870 5873 5876 5879 5882 5885 5890 5891 5893 5894 5897 5899 5901 5903 5905 5907 5909 5914
5762 5767 5770 5775 5779 5783 5782 5786 5793 5801 5806 5810 5814 5821 5823 5825 5831 5838 5837 5841 5844 5846 5852 5855 5858 5859 5863 5868 5870 5872 5875 5877 5880 5885 5888 5891 5893 5895 5898 5900 5902 5903 5905 5908
5754 5758 5764 5766 5771 5776 5777 5775 5778 5791 5798 5802 5808 5814 5818 5820 5821 5829 5831 5834 5838 5840 5842 5845 5848 5850 5851 5856 5862 5864 5867 5869 5872 5875 5879 5883 5885 5888 5893 5896 5897 5898 5900 5902
5751 5753 5756 5758 5761 5765 5769 5767 5778 5785 5794 5793 5797 5802 5808 5812 5816 5819 5825 5827 5826 5830 5832 5835 5839 5841 5844 5846 5850 5856 5860 5862 5863 5865 5868 5872 5875 5878 5882 5885 5889 5892 5893 5894
5746 5748 5749 5751 5755 5759 5764 5766 5770 5781 5782 5784 5790 5793 5796 5800 5803 5807 5811 5817 5816 5820 5823 5823 5829 5834 5837 5839 5839 5843 5848 5851 5854 5858 5860 5862 5866 5868 5871 5875 5878 5882 5885 5887
5741 5743 5745 5747 5749 5753 5756 5760 5763 5767 5770 5775 5781 5785 5789 5791 5793 5796 5800 5805 5809 5813 5813 5813 5819 5823 5827 5830 5833 5836 5836 5838 5841 5845 5849 5853 5854 5856 5860 5863 5866 5869 5872 5875
5733 5735 5738 5740 5743 5744 5747 5751 5755 5758 5761 5765 5768 5772 5775 5778 5781 5785 5790 5794 5797 5797 5799 5801 5803 5806 5810 5815 5819 5823 5825 5826 5829 5830 5834 5838 5842 5845 5847 5850 5853 5856 5859 5863
5725 5727 5729 5732 5734 5736 5739 5741 5745 5749 5753 5755 5757 5760 5763 5768 5771 5774 5777 5781 5780 5783 5786 5788 5791 5794 5796 5799 5801 5804 5806 5810 5814 5817 5819 5823 5826 5830 5834 5836 5838 5841 5844 5848
5718 5718 5720 5722 5725 5728 5730 5733 5737 5739 5743 5746 5748 5750 5752 5755 5759 5762 5765 5765 5767 5771 5773 5774 5776 5781 5785 5786 5788 5789 5791 5793 5797 5802 5805 5808 5810 5814 5817 5821 5825 5827 5829 5832
Wind_Speed
43 41 35 28 22 22 21 23 24 20 16 11 14 5 2 12 13 6 9 10 8 8 7 8 10 7 7 5 8 8 8 12 11 11 13 14 15 12 13 13 12 10 11 13
41 38 32 31 31 29 26 29 28 25 18 16 7 10 9 8 6 7 9 11 9 8 7 4 6 7 7 6 5 7 6 9 11 9 11 14 13 13 14 12 11 10 9 11
36 29 36 35 34 33 31 31 29 26 24 24 17 14 15 17 8 13 7 9 15 11 9 6 5 6 8 9 7 7 7 7 9 11 9 11 13 14 14 11 12 10 8 10
31 37 36 38 36 35 35 30 31 31 24 27 8 14 23 19 20 16 10 11 8 13 10 10 8 8 9 11 9 8 9 7 8 9 10 9 11 12 14 13 10 11 11 9
29 36 36 35 38 36 32 32 31 23 16 18 14 11 11 19 19 13 12 14 14 17 16 15 13 12 11 11 12 10 9 9 7 7 10 11 12 11 11 14 12 11 12 11
35 31 34 32 35 36 37 38 33 29 26 26 16 14 15 18 13 13 6 7 8 21 17 20 20 15 13 12 13 12 12 11 9 9 9 9 10 10 10 12 13 10 12 12
36 38 37 38 35 38 46 42 35 31 24 15 18 19 21 10 7 5 9 14 13 8 18 22 16 15 14 15 15 16 16 15 13 10 10 10 9 11 11 9 10 11 10 12
35 38 37 37 40 41 50 45 37 33 23 13 17 17 17 17 15 14 10 14 17 16 17 21 23 21 21 20 20 18 19 19 18 15 13 12 14 12 11 8 8 9 10 10
35 36 32 34 33 36 50 45 37 31 24 25 20 20 21 20 16 14 12 8 16 10 18 15 18 23 23 22 21 22 23 22 22 21 17 16 15 14 14 13 10 8 7 9
32 35 34 30 28 27 43 47 36 33 28 24 24 20 24 26 24 21 20 15 9 14 21 10 9 14 25 27 24 26 25 25 27 27 24 20 16 16 17 16 14 11 10 8
34 33 35 31 31 30 41 51 45 37 34 24 29 30 27 27 25 25 22 17 13 17 14 18 19 18 25 30 30 30 28 25 25 26 26 25 23 21 20 18 17 14 12 11
36 31 35 32 30 35 43 46 48 40 36 33 26 34 30 28 26 22 23 21 20 23 20 20 20 13 30 39 32 34 30 28 26 27 26 25 25 23 23 24 21 20 18 16
37 34 33 33 30 32 35 41 48 44 40 40 36 37 33 27 22 26 28 24 24 25 25 23 21 20 21 31 19 33 30 31 24 31 29 28 27 27 26 25 26 25 22 20
34 38 37 37 35 37 38 41 52 47 45 47 43 40 37 32 25 19 36 29 26 27 26 23 22 20 19 18 23 10 20 35 35 26 34 32 30 30 31 30 28 28 27 24
33 36 37 35 40 38 38 35 48 49 49 48 47 45 42 41 33 31 41 23 20 28 28 25 21 23 22 17 12 18 13 13 21 33 35 25 35 34 37 32 30 30 28 27
35 34 34 38 37 37 36 34 43 44 48 56 52 51 45 37 28 24 30 25 21 16 20 22 22 24 25 20 20 20 20 14 21 30 16 34 37 33 29 29 33 31 29 29
33 36 36 40 42 33 35 33 35 45 48 44 49 56 50 45 31 25 23 27 26 20 23 23 23 24 26 25 21 22 20 19 21 23 23 18 18 12 26 31 33 33 32 32
27 33 41 42 50 40 32 31 31 40 51 51 47 49 59 54 40 19 18 23 21 21 22 19 21 24 25 25 25 26 26 26 25 24 23 21 22 18 14 13 11 14 31 32
32 32 39 44 43 40 50 34 37 38 42 45 50 54 55 56 52 47 43 28 25 28 27 27 24 24 25 25 26 28 29 30 29 28 27 27 25 22 20 18 17 16 18 26
34 35 38 39 45 49 43 35 38 41 43 40 41 45 55 54 56 52 40 39 37 35 31 30 28 30 30 27 26 30 32 32 34 35 33 31 30 29 26 25 24 24 23 25
24 18 32 39 39 43 51 50 42 37 45 49 46 45 45 52 57 54 35 38 31 36 34 31 32 33 34 35 34 33 34 34 34 37 39 38 36 34 32 31 29 29 31 31
19 20 23 32 42 45 45 42 44 44 44 43 44 39 47 52 53 53 51 44 45 38 44 43 44 44 43 43 43 43 41 40 38 39 43 44 41 40 39 37 34 34 33 35
22 22 24 29 31 32 35 34 33 40 48 44 51 48 43 43 45 47 49 47 46 53 50 44 44 47 47 48 49 50 51 51 50 48 47 46 46 47 44 43 42 41 39 38
24 22 21 26 29 33 34 33 33 35 36 40 42 41 40 43 45 49 52 51 50 51 55 54 50 54 61 63 64 64 58 55 53 51 50 49 48 48 48 47 46 46 46 45
26 26 27 26 27 32 32 32 34 34 36 39 40 43 46 44 43 42 39 38 45 49 55 57 51 46 49 52 52 53 53 52 53 51 49 49 49 49 49 49 49 48 48 47
22 25 28 30 31 29 31 33 33 35 35 37 40 42 42 44 45 45 44 44 44 43 42 43 49 54 54 46 43 44 46 47 48 49 48 48 48 48 49 48 47 48 48 49
Wind_Direction
217 214 215 218 210 206 208 215 208 212 232 235 224 181 168 169 167 168 202 197 176 166 159 141 160 172 148 154 147 135 121 118 118 105 106 101 91 92 82 84 88 110 120 125
217 211 208 210 206 200 205 218 228 210 207 228 241 260 204 200 164 181 196 207 196 179 160 165 160 182 177 171 163 142 139 126 133 123 115 107 98 88 81 80 89 94 121 128
216 208 210 206 206 205 204 219 222 223 216 189 211 240 213 202 222 201 193 203 206 190 170 168 174 208 190 194 181 171 164 149 152 145 128 110 112 100 92 88 95 100 99 121
206 212 211 207 202 206 205 215 226 232 235 242 258 229 231 224 208 188 211 211 193 193 191 178 183 211 204 203 203 186 177 173 167 160 140 143 118 111 103 104 98 93 99 108
201 213 213 211 205 200 194 205 212 222 240 243 236 255 243 187 197 172 185 198 202 205 198 194 203 214 216 203 206 201 192 179 185 166 161 152 132 118 114 112 104 103 105 107
195 206 212 208 210 197 190 197 203 213 229 235 243 225 195 212 269 159 169 228 229 197 199 212 204 215 224 207 206 202 201 187 187 187 183 165 155 135 130 123 115 111 109 110
201 207 205 207 204 198 189 198 202 208 222 223 246 235 220 216 233 235 272 271 215 197 186 204 203 206 218 211 206 204 200 195 186 194 193 186 188 155 146 136 127 123 118 118
203 206 206 209 205 200 188 198 202 206 210 192 220 223 189 200 212 225 244 245 212 211 207 205 212 212 210 208 210 210 203 200 191 190 198 196 200 182 167 158 156 140 141 134
200 206 208 218 214 210 189 195 199 206 188 182 218 217 210 210 219 240 241 239 178 246 232 205 224 223 227 219 217 215 207 206 203 194 190 204 207 191 185 177 179 169 153 150
206 202 203 209 207 204 202 203 195 199 183 196 217 226 226 221 222 228 233 246 264 268 283 246 275 234 216 230 223 219 215 213 211 200 194 196 202 201 198 188 191 186 186 172
208 203 205 202 207 197 199 204 203 204 193 203 220 229 228 225 227 231 235 248 246 233 254 265 257 248 249 232 229 226 221 210 223 220 210 199 197 202 197 196 196 203 200 193
206 200 204 204 206 204 203 203 201 202 199 205 219 226 234 237 230 228 242 241 231 244 251 247 245 245 238 245 236 210 215 209 209 223 220 216 215 209 199 193 198 203 204 201
205 195 199 206 200 208 208 205 203 201 199 209 218 218 221 234 237 232 230 228 230 239 249 250 254 252 244 264 250 203 209 220 212 218 217 213 215 214 216 204 197 204 209 205
210 204 205 199 205 211 209 197 206 205 207 211 215 223 226 228 231 223 217 227 226 234 241 244 250 250 251 257 261 223 217 224 220 217 222 208 209 214 215 214 208 205 207 210
212 213 215 210 214 218 226 209 204 211 217 219 220 225 230 232 234 238 242 263 258 236 244 245 241 243 243 244 252 269 273 243 234 225 236 229 212 218 220 214 214 209 212 215
214 217 216 223 218 210 219 216 206 210 221 219 223 229 229 234 241 252 244 247 233 239 250 247 245 238 242 228 225 233 247 248 222 228 222 247 229 224 224 216 214 208 210 218
221 218 218 217 223 225 224 221 210 212 220 225 228 228 234 234 246 257 236 244 243 243 245 247 244 238 240 241 235 235 238 251 258 269 274 231 238 247 225 232 230 220 211 214
230 229 224 224 218 205 209 224 221 214 219 221 224 227 235 242 249 200 207 221 230 223 231 237 243 239 239 245 246 245 249 252 253 259 264 266 273 280 281 265 228 213 220 220
238 248 232 224 229 207 211 201 207 222 227 232 233 231 236 243 248 246 254 252 246 239 246 244 242 244 242 241 248 253 256 260 261 260 260 261 260 263 260 257 258 252 231 227
244 235 230 234 230 219 219 215 202 217 218 234 239 242 238 244 251 254 255 249 247 241 243 241 243 248 253 249 244 252 255 258 262 265 265 262 264 262 255 247 245 247 247 246
231 235 228 231 236 236 243 250 216 216 215 229 240 245 245 243 241 245 236 226 222 225 228 232 241 245 250 255 258 254 256 259 263 267 269 269 268 265 262 260 253 245 246 248
228 229 237 230 231 237 238 238 248 236 235 227 228 228 232 237 240 241 241 226 218 233 234 225 235 243 248 254 259 262 261 261 260 261 264 267 267 267 267 263 260 256 248 245
245 239 236 234 232 235 237 237 240 240 242 242 239 237 239 235 233 236 238 236 237 242 241 238 240 247 249 251 254 259 263 265 265 265 263 263 264 264 263 262 261 260 257 253
256 255 245 239 237 237 238 240 240 241 241 238 235 234 235 234 237 241 241 244 246 247 249 252 257 261 263 264 264 266 266 263 264 264 264 262 260 260 262 262 262 260 259 257
255 250 249 245 240 239 241 240 235 234 238 243 245 245 246 247 251 248 245 248 247 251 253 254 255 257 257 259 259 259 261 261 261 263 262 261 260 260 258 258 258 257 257 257
264 259 254 250 245 244 246 244 243 239 236 236 242 246 247 246 245 245 247 249 248 248 250 250 252 252 250 253 255 255 256 258 259 259 259 259 259 259 259 258 257 257 256 256